Time,TemperatureF,DewpointF,PressureIn,WindDirection,WindDirectionDegrees,WindSpeedMPH,WindSpeedGustMPH,Humidity,HourlyPrecipIn,Conditions,Clouds,dailyrainin,SoftwareType,DateUTC
2013-03-20 00:00:00,22.9,12.9,30.06,WNW,302,5.0,5.0,65,0.00,,,0.00,Wunderground v.1.15,2013-03-20 05:00:00,
2013-03-20 00:06:00,22.7,12.3,30.07,WNW,285,4.0,12.0,64,0.00,,,0.00,Wunderground v.1.15,2013-03-20 05:06:00,
2013-03-20 00:12:00,22.6,12.2,30.06,SW,219,4.0,5.0,64,0.00,,,0.00,Wunderground v.1.15,2013-03-20 05:12:00,
2013-03-20 00:17:00,22.5,12.1,30.07,West,273,4.0,6.0,64,0.00,,,0.00,Wunderground v.1.15,2013-03-20 05:17:00,
2013-03-20 00:22:00,22.3,12.0,30.07,WNW,285,4.0,5.0,64,0.00,,,0.00,Wunderground v.1.15,2013-03-20 05:22:00,
2013-03-20 00:28:00,22.1,11.4,30.06,WNW,292,4.0,7.0,63,0.00,,,0.00,Wunderground v.1.15,2013-03-20 05:28:00,
2013-03-20 00:34:00,21.9,11.2,30.06,WSW,248,4.0,7.0,63,0.00,,,0.00,Wunderground v.1.15,2013-03-20 05:34:00,
2013-03-20 00:39:00,21.7,11.0,30.06,West,269,4.0,7.0,63,0.00,,,0.00,Wunderground v.1.15,2013-03-20 05:39:00,
2013-03-20 00:44:00,21.6,10.9,30.06,West,280,4.0,5.0,63,0.00,,,0.00,Wunderground v.1.15,2013-03-20 05:44:00,
2013-03-20 00:50:00,21.5,10.8,30.06,WSW,248,4.0,4.0,63,0.00,,,0.00,Wunderground v.1.15,2013-03-20 05:50:00,
2013-03-20 00:55:00,21.3,11.0,30.06,West,280,3.0,4.0,64,0.00,,,0.00,Wunderground v.1.15,2013-03-20 05:55:00,
2013-03-20 01:00:00,21.1,10.8,30.07,West,269,3.0,3.0,64,0.00,,,0.00,Wunderground v.1.15,2013-03-20 06:00:00,
2013-03-20 01:06:00,21.0,10.4,30.07,WSW,238,4.0,7.0,63,0.00,,,0.00,Wunderground v.1.15,2013-03-20 06:06:00,
2013-03-20 01:11:00,20.9,10.6,30.07,SW,230,4.0,4.0,64,0.00,,,0.00,Wunderground v.1.15,2013-03-20 06:11:00,
2013-03-20 01:17:00,20.7,10.8,30.07,NW,306,3.0,4.0,65,0.00,,,0.00,Wunderground v.1.15,2013-03-20 06:17:00,
2013-03-20 01:22:00,20.6,10.7,30.07,WNW,296,3.0,4.0,65,0.00,,,0.00,Wunderground v.1.15,2013-03-20 06:22:00,
2013-03-20 01:27:00,20.4,10.8,30.07,WNW,297,3.0,4.0,66,0.00,,,0.00,Wunderground v.1.15,2013-03-20 06:27:00,
2013-03-20 01:33:00,20.2,11.0,30.07,NW,314,3.0,3.0,67,0.00,,,0.00,Wunderground v.1.15,2013-03-20 06:33:00,
2013-03-20 01:38:00,20.0,11.1,30.07,NW,313,2.0,5.0,68,0.00,,,0.00,Wunderground v.1.15,2013-03-20 06:38:00,
2013-03-20 01:44:00,19.8,11.3,30.07,NW,309,3.0,4.0,69,0.00,,,0.00,Wunderground v.1.15,2013-03-20 06:44:00,
2013-03-20 01:50:00,19.7,11.2,30.07,SW,236,3.0,3.0,69,0.00,,,0.00,Wunderground v.1.15,2013-03-20 06:50:00,
2013-03-20 01:55:00,19.5,11.0,30.07,WNW,291,3.0,3.0,69,0.00,,,0.00,Wunderground v.1.15,2013-03-20 06:55:00,
2013-03-20 02:02:00,19.3,11.1,30.07,West,277,3.0,8.0,70,0.00,,,0.00,Wunderground v.1.15,2013-03-20 07:02:00,
2013-03-20 02:08:00,19.2,10.7,30.07,WSW,251,3.0,8.0,69,0.00,,,0.00,Wunderground v.1.15,2013-03-20 07:08:00,
2013-03-20 02:13:00,19.1,10.3,30.07,West,279,3.0,3.0,68,0.00,,,0.00,Wunderground v.1.15,2013-03-20 07:13:00,
2013-03-20 02:19:00,18.9,10.1,30.07,WNW,302,3.0,3.0,68,0.00,,,0.00,Wunderground v.1.15,2013-03-20 07:19:00,
2013-03-20 02:25:00,18.8,9.6,30.06,WNW,295,3.0,15.0,67,0.00,,,0.00,Wunderground v.1.15,2013-03-20 07:25:00,
2013-03-20 02:31:00,18.7,9.6,30.07,West,281,4.0,4.0,67,0.00,,,0.00,Wunderground v.1.15,2013-03-20 07:31:00,
2013-03-20 02:36:00,18.5,9.7,30.06,WSW,254,4.0,4.0,68,0.00,,,0.00,Wunderground v.1.15,2013-03-20 07:36:00,
2013-03-20 02:41:00,18.2,9.1,30.06,WSW,254,4.0,6.0,67,0.00,,,0.00,Wunderground v.1.15,2013-03-20 07:41:00,
2013-03-20 02:47:00,18.1,9.0,30.06,WNW,282,4.0,6.0,67,0.00,,,0.00,Wunderground v.1.15,2013-03-20 07:47:00,
2013-03-20 02:53:00,17.9,9.1,30.06,WSW,250,4.0,4.0,68,0.00,,,0.00,Wunderground v.1.15,2013-03-20 07:53:00,
2013-03-20 02:59:00,17.6,8.8,30.06,West,268,3.0,5.0,68,0.00,,,0.00,Wunderground v.1.15,2013-03-20 07:59:00,
2013-03-20 03:04:00,17.5,8.7,30.06,WNW,299,4.0,5.0,68,0.00,,,0.00,Wunderground v.1.15,2013-03-20 08:04:00,
2013-03-20 03:10:00,17.2,8.4,30.06,WNW,294,4.0,4.0,68,0.00,,,0.00,Wunderground v.1.15,2013-03-20 08:10:00,
2013-03-20 03:15:00,17.1,8.7,30.06,West,263,4.0,6.0,69,0.00,,,0.00,Wunderground v.1.15,2013-03-20 08:15:00,
2013-03-20 03:22:00,16.8,8.4,30.06,SW,226,3.0,3.0,69,0.00,,,0.00,Wunderground v.1.15,2013-03-20 08:22:00,
2013-03-20 03:27:00,16.7,8.6,30.07,NNW,327,3.0,4.0,70,0.00,,,0.00,Wunderground v.1.15,2013-03-20 08:27:00,
2013-03-20 03:33:00,16.4,8.3,30.07,West,265,3.0,6.0,70,0.00,,,0.00,Wunderground v.1.15,2013-03-20 08:33:00,
2013-03-20 03:39:00,16.3,8.2,30.07,NW,308,3.0,6.0,70,0.00,,,0.00,Wunderground v.1.15,2013-03-20 08:39:00,
2013-03-20 03:45:00,16.1,8.3,30.07,West,272,3.0,5.0,71,0.00,,,0.00,Wunderground v.1.15,2013-03-20 08:45:00,
2013-03-20 03:50:00,15.9,8.2,30.06,WSW,248,3.0,5.0,71,0.00,,,0.00,Wunderground v.1.15,2013-03-20 08:50:00,
2013-03-20 03:56:00,15.8,8.1,30.06,West,281,3.0,5.0,71,0.00,,,0.00,Wunderground v.1.15,2013-03-20 08:56:00,
2013-03-20 04:02:00,15.6,7.9,30.07,West,262,3.0,8.0,71,0.00,,,0.00,Wunderground v.1.15,2013-03-20 09:02:00,
2013-03-20 04:08:00,15.5,7.8,30.07,WNW,288,3.0,8.0,71,0.00,,,0.00,Wunderground v.1.15,2013-03-20 09:08:00,
2013-03-20 04:14:00,15.4,8.0,30.07,North,5,3.0,4.0,72,0.00,,,0.00,Wunderground v.1.15,2013-03-20 09:14:00,
2013-03-20 04:19:00,15.2,7.8,30.07,WNW,294,3.0,5.0,72,0.00,,,0.00,Wunderground v.1.15,2013-03-20 09:19:00,
2013-03-20 04:24:00,15.1,7.7,30.07,West,261,3.0,5.0,72,0.00,,,0.00,Wunderground v.1.15,2013-03-20 09:24:00,
2013-03-20 04:30:00,15.0,7.6,30.07,West,263,3.0,4.0,72,0.00,,,0.00,Wunderground v.1.15,2013-03-20 09:30:00,
2013-03-20 04:35:00,14.8,7.4,30.07,West,273,3.0,6.0,72,0.00,,,0.00,Wunderground v.1.15,2013-03-20 09:35:00,
2013-03-20 04:41:00,14.6,7.2,30.07,NW,318,3.0,3.0,72,0.00,,,0.00,Wunderground v.1.15,2013-03-20 09:41:00,
2013-03-20 04:46:00,14.5,7.1,30.08,West,280,3.0,4.0,72,0.00,,,0.00,Wunderground v.1.15,2013-03-20 09:46:00,
2013-03-20 04:52:00,14.4,7.0,30.08,West,273,3.0,5.0,72,0.00,,,0.00,Wunderground v.1.15,2013-03-20 09:52:00,
2013-03-20 04:57:00,14.3,6.9,30.08,West,271,4.0,8.0,72,0.00,,,0.00,Wunderground v.1.15,2013-03-20 09:57:00,
2013-03-20 05:02:00,14.1,6.7,30.08,North,355,4.0,9.0,72,0.00,,,0.00,Wunderground v.1.15,2013-03-20 10:02:00,
2013-03-20 05:08:00,14.0,6.6,30.08,NW,306,4.0,9.0,72,0.00,,,0.00,Wunderground v.1.15,2013-03-20 10:08:00,
2013-03-20 05:14:00,13.9,6.5,30.08,West,268,3.0,4.0,72,0.00,,,0.00,Wunderground v.1.15,2013-03-20 10:14:00,
2013-03-20 05:19:00,13.8,6.4,30.08,NW,304,3.0,6.0,72,0.00,,,0.00,Wunderground v.1.15,2013-03-20 10:19:00,
2013-03-20 05:27:00,13.6,6.2,30.08,WNW,302,3.0,6.0,72,0.00,,,0.00,Wunderground v.1.15,2013-03-20 10:27:00,
2013-03-20 05:33:00,13.5,6.1,30.08,WNW,295,3.0,3.0,72,0.00,,,0.00,Wunderground v.1.15,2013-03-20 10:33:00,
2013-03-20 05:39:00,13.4,6.1,30.08,NE,42,3.0,5.0,72,0.00,,,0.00,Wunderground v.1.15,2013-03-20 10:39:00,
2013-03-20 05:45:00,13.2,5.9,30.08,WSW,253,2.0,5.0,72,0.00,,,0.00,Wunderground v.1.15,2013-03-20 10:45:00,
2013-03-20 05:51:00,13.2,5.9,30.08,West,263,3.0,6.0,72,0.00,,,0.00,Wunderground v.1.15,2013-03-20 10:51:00,
2013-03-20 05:57:00,13.0,5.7,30.08,West,265,3.0,6.0,72,0.00,,,0.00,Wunderground v.1.15,2013-03-20 10:57:00,
2013-03-20 06:02:00,12.9,5.6,30.08,WSW,255,3.0,10.0,72,0.00,,,0.00,Wunderground v.1.15,2013-03-20 11:02:00,
2013-03-20 06:08:00,12.9,5.6,30.08,WNW,283,3.0,10.0,72,0.00,,,0.00,Wunderground v.1.15,2013-03-20 11:08:00,
2013-03-20 06:14:00,12.7,5.4,30.09,West,279,3.0,3.0,72,0.00,,,0.00,Wunderground v.1.15,2013-03-20 11:14:00,
2013-03-20 06:20:00,12.7,5.4,30.09,WSW,257,3.0,3.0,72,0.00,,,0.00,Wunderground v.1.15,2013-03-20 11:20:00,
2013-03-20 06:26:00,12.5,5.5,30.09,WNW,302,3.0,5.0,73,0.00,,,0.00,Wunderground v.1.15,2013-03-20 11:26:00,
2013-03-20 06:32:00,12.5,5.2,30.09,West,276,2.0,3.0,72,0.00,,,0.00,Wunderground v.1.15,2013-03-20 11:32:00,
2013-03-20 06:38:00,12.3,5.6,30.09,WSW,256,2.0,3.0,74,0.00,,,0.00,Wunderground v.1.15,2013-03-20 11:38:00,
2013-03-20 06:44:00,12.2,5.2,30.10,West,264,3.0,4.0,73,0.00,,,0.00,Wunderground v.1.15,2013-03-20 11:44:00,
2013-03-20 06:50:00,12.0,5.0,30.09,WNW,287,3.0,3.0,73,0.00,,,0.00,Wunderground v.1.15,2013-03-20 11:50:00,
2013-03-20 06:57:00,11.9,5.2,30.10,WNW,296,3.0,5.0,74,0.00,,,0.00,Wunderground v.1.15,2013-03-20 11:57:00,
2013-03-20 07:02:00,11.8,5.1,30.10,West,267,2.0,9.0,74,0.00,,,0.00,Wunderground v.1.15,2013-03-20 12:02:00,
2013-03-20 07:08:00,11.7,5.0,30.10,WNW,294,2.0,9.0,74,0.00,,,0.00,Wunderground v.1.15,2013-03-20 12:08:00,
2013-03-20 07:13:00,11.7,5.0,30.10,NW,306,2.0,4.0,74,0.00,,,0.00,Wunderground v.1.15,2013-03-20 12:13:00,
2013-03-20 07:19:00,11.6,4.9,30.10,West,263,3.0,7.0,74,0.00,,,0.00,Wunderground v.1.15,2013-03-20 12:19:00,
2013-03-20 07:25:00,11.6,4.6,30.11,NNW,338,3.0,5.0,73,0.00,,,0.00,Wunderground v.1.15,2013-03-20 12:25:00,
2013-03-20 07:30:00,11.7,5.0,30.11,WSW,253,3.0,3.0,74,0.00,,,0.00,Wunderground v.1.15,2013-03-20 12:30:00,
2013-03-20 07:35:00,11.7,4.7,30.11,WNW,302,3.0,3.0,73,0.00,,,0.00,Wunderground v.1.15,2013-03-20 12:35:00,
2013-03-20 07:42:00,11.7,4.7,30.11,WNW,292,3.0,4.0,73,0.00,,,0.00,Wunderground v.1.15,2013-03-20 12:42:00,
2013-03-20 07:48:00,11.8,4.8,30.11,West,270,3.0,6.0,73,0.00,,,0.00,Wunderground v.1.15,2013-03-20 12:48:00,
2013-03-20 07:53:00,11.9,4.9,30.11,WSW,257,3.0,3.0,73,0.00,,,0.00,Wunderground v.1.15,2013-03-20 12:53:00,
2013-03-20 07:59:00,11.9,4.6,30.11,WNW,283,3.0,4.0,72,0.00,,,0.00,Wunderground v.1.15,2013-03-20 12:59:00,
2013-03-20 08:04:00,11.9,4.6,30.11,West,275,3.0,6.0,72,0.00,,,0.00,Wunderground v.1.15,2013-03-20 13:04:00,
2013-03-20 08:10:00,11.9,4.3,30.11,North,350,3.0,5.0,71,0.00,,,0.00,Wunderground v.1.15,2013-03-20 13:10:00,
2013-03-20 08:15:00,12.1,4.5,30.11,West,276,3.0,7.0,71,0.00,,,0.00,Wunderground v.1.15,2013-03-20 13:15:00,
2013-03-20 08:20:00,12.1,4.2,30.11,SSW,192,3.0,7.0,70,0.00,,,0.00,Wunderground v.1.15,2013-03-20 13:20:00,
2013-03-20 08:26:00,12.2,4.0,30.11,WNW,296,4.0,7.0,69,0.00,,,0.00,Wunderground v.1.15,2013-03-20 13:26:00,
2013-03-20 08:32:00,12.3,4.4,30.11,West,267,4.0,4.0,70,0.00,,,0.00,Wunderground v.1.15,2013-03-20 13:32:00,
2013-03-20 08:37:00,12.5,4.3,30.11,NW,310,4.0,4.0,69,0.00,,,0.00,Wunderground v.1.15,2013-03-20 13:37:00,
2013-03-20 08:43:00,12.5,4.3,30.11,West,263,4.0,8.0,69,0.00,,,0.00,Wunderground v.1.15,2013-03-20 13:43:00,
2013-03-20 08:48:00,12.6,4.0,30.11,WSW,244,4.0,8.0,68,0.00,,,0.00,Wunderground v.1.15,2013-03-20 13:48:00,
2013-03-20 08:53:00,12.7,4.1,30.11,WNW,284,4.0,7.0,68,0.00,,,0.00,Wunderground v.1.15,2013-03-20 13:53:00,
2013-03-20 08:58:00,12.8,3.9,30.11,NW,306,5.0,8.0,67,0.00,,,0.00,Wunderground v.1.15,2013-03-20 13:58:00,
2013-03-20 09:03:00,12.9,4.0,30.11,WNW,300,4.0,7.0,67,0.00,,,0.00,Wunderground v.1.15,2013-03-20 14:03:00,
2013-03-20 09:09:00,13.1,4.5,30.11,South,185,4.0,7.0,68,0.00,,,0.00,Wunderground v.1.15,2013-03-20 14:09:00,
2013-03-20 09:15:00,13.4,4.8,30.11,WSW,245,3.0,5.0,68,0.00,,,0.00,Wunderground v.1.15,2013-03-20 14:15:00,
2013-03-20 09:20:00,13.4,4.5,30.11,WNW,302,3.0,4.0,67,0.00,,,0.00,Wunderground v.1.15,2013-03-20 14:20:00,
2013-03-20 09:25:00,13.6,4.7,30.11,West,269,4.0,5.0,67,0.00,,,0.00,Wunderground v.1.15,2013-03-20 14:25:00,
2013-03-20 09:30:00,13.6,4.3,30.11,NW,319,4.0,5.0,66,0.00,,,0.00,Wunderground v.1.15,2013-03-20 14:30:00,
2013-03-20 09:35:00,13.7,4.4,30.11,WNW,292,4.0,7.0,66,0.00,,,0.00,Wunderground v.1.15,2013-03-20 14:35:00,
2013-03-20 09:41:00,14.0,4.7,30.10,NW,325,4.0,6.0,66,0.00,,,0.00,Wunderground v.1.15,2013-03-20 14:41:00,
2013-03-20 09:47:00,14.2,4.6,30.10,West,280,4.0,8.0,65,0.00,,,0.00,Wunderground v.1.15,2013-03-20 14:47:00,
2013-03-20 09:52:00,14.3,4.7,30.10,WNW,286,4.0,6.0,65,0.00,,,0.00,Wunderground v.1.15,2013-03-20 14:52:00,
2013-03-20 09:57:00,14.4,5.1,30.10,WSW,255,4.0,8.0,66,0.00,,,0.00,Wunderground v.1.15,2013-03-20 14:57:00,
2013-03-20 10:02:00,14.5,4.9,30.10,West,265,4.0,11.0,65,0.00,,,0.00,Wunderground v.1.15,2013-03-20 15:02:00,
2013-03-20 10:08:00,14.6,5.0,30.10,WNW,290,4.0,11.0,65,0.00,,,0.00,Wunderground v.1.15,2013-03-20 15:08:00,
2013-03-20 10:13:00,14.7,5.1,30.10,West,277,4.0,8.0,65,0.00,,,0.00,Wunderground v.1.15,2013-03-20 15:13:00,
2013-03-20 10:19:00,14.8,5.2,30.10,WSW,244,4.0,8.0,65,0.00,,,0.00,Wunderground v.1.15,2013-03-20 15:19:00,
2013-03-20 10:24:00,15.2,5.9,30.10,West,264,4.0,7.0,66,0.00,,,0.00,Wunderground v.1.15,2013-03-20 15:24:00,
2013-03-20 10:29:00,15.5,5.8,30.10,West,259,4.0,7.0,65,0.00,,,0.00,Wunderground v.1.15,2013-03-20 15:29:00,
2013-03-20 10:35:00,15.6,5.9,30.10,WNW,286,4.0,7.0,65,0.00,,,0.00,Wunderground v.1.15,2013-03-20 15:35:00,
2013-03-20 10:42:00,15.7,6.3,30.10,West,269,4.0,6.0,66,0.00,,,0.00,Wunderground v.1.15,2013-03-20 15:42:00,
2013-03-20 10:48:00,15.8,6.4,30.10,West,277,5.0,8.0,66,0.00,,,0.00,Wunderground v.1.15,2013-03-20 15:48:00,
2013-03-20 10:53:00,15.8,6.4,30.10,SSW,213,5.0,6.0,66,0.00,,,0.00,Wunderground v.1.15,2013-03-20 15:53:00,
2013-03-20 10:58:00,15.9,6.9,30.10,WNW,298,5.0,9.0,67,0.00,,,0.00,Wunderground v.1.15,2013-03-20 15:58:00,
2013-03-20 11:03:00,16.2,6.8,30.10,West,271,4.0,12.0,66,0.00,,,0.00,Wunderground v.1.15,2013-03-20 16:03:00,
2013-03-20 11:09:00,16.5,7.1,30.09,WNW,292,4.0,12.0,66,0.00,,,0.00,Wunderground v.1.15,2013-03-20 16:09:00,
2013-03-20 11:15:00,16.3,7.3,30.09,SSW,210,5.0,5.0,67,0.00,,,0.00,Wunderground v.1.15,2013-03-20 16:15:00,
2013-03-20 11:20:00,16.4,7.0,30.10,WNW,295,5.0,5.0,66,0.00,,,0.00,Wunderground v.1.15,2013-03-20 16:20:00,
2013-03-20 11:27:00,16.6,7.2,30.10,NW,317,5.0,6.0,66,0.00,,,0.00,Wunderground v.1.15,2013-03-20 16:27:00,
2013-03-20 11:32:00,16.7,7.3,30.10,West,269,5.0,5.0,66,0.00,,,0.00,Wunderground v.1.15,2013-03-20 16:32:00,
2013-03-20 11:38:00,17.1,7.7,30.10,WSW,248,4.0,8.0,66,0.00,,,0.00,Wunderground v.1.15,2013-03-20 16:38:00,
2013-03-20 11:44:00,17.3,7.9,30.10,WNW,283,5.0,7.0,66,0.00,,,0.00,Wunderground v.1.15,2013-03-20 16:44:00,
2013-03-20 11:49:00,17.5,8.1,30.09,NNW,330,4.0,7.0,66,0.00,,,0.00,Wunderground v.1.15,2013-03-20 16:49:00,
2013-03-20 11:55:00,17.7,8.6,30.10,West,271,4.0,7.0,67,0.00,,,0.00,Wunderground v.1.15,2013-03-20 16:55:00,
2013-03-20 12:01:00,17.9,8.8,30.10,WNW,291,5.0,12.0,67,0.00,,,0.00,Wunderground v.1.15,2013-03-20 17:01:00,
2013-03-20 12:06:00,18.1,8.0,30.09,West,275,5.0,12.0,64,0.00,,,0.00,Wunderground v.1.15,2013-03-20 17:06:00,
2013-03-20 12:12:00,18.4,8.9,30.09,West,272,5.0,9.0,66,0.00,,,0.00,Wunderground v.1.15,2013-03-20 17:12:00,
2013-03-20 12:18:00,18.8,9.0,30.10,West,259,4.0,9.0,65,0.00,,,0.00,Wunderground v.1.15,2013-03-20 17:18:00,
2013-03-20 12:23:00,18.9,9.4,30.09,West,264,4.0,5.0,66,0.00,,,0.00,Wunderground v.1.15,2013-03-20 17:23:00,
2013-03-20 12:29:00,19.1,9.3,30.09,SE,138,5.0,5.0,65,0.00,,,0.00,Wunderground v.1.15,2013-03-20 17:29:00,
2013-03-20 12:37:00,19.5,9.6,30.09,West,269,4.0,8.0,65,0.00,,,0.00,Wunderground v.1.15,2013-03-20 17:37:00,
2013-03-20 12:43:00,19.6,10.1,30.09,West,279,4.0,8.0,66,0.00,,,0.00,Wunderground v.1.15,2013-03-20 17:43:00,
2013-03-20 12:49:00,19.9,10.0,30.09,SW,219,4.0,8.0,65,0.00,,,0.00,Wunderground v.1.15,2013-03-20 17:49:00,
2013-03-20 12:54:00,20.0,10.1,30.09,West,281,4.0,6.0,65,0.00,,,0.00,Wunderground v.1.15,2013-03-20 17:54:00,
2013-03-20 13:00:00,19.9,9.7,30.09,WNW,286,4.0,4.0,64,0.00,,,0.00,Wunderground v.1.15,2013-03-20 18:00:00,
2013-03-20 13:07:00,20.2,10.0,30.08,NW,309,5.0,11.0,64,0.00,,,0.00,Wunderground v.1.15,2013-03-20 18:07:00,
2013-03-20 13:12:00,20.2,10.0,30.08,WNW,298,5.0,5.0,64,0.00,,,0.00,Wunderground v.1.15,2013-03-20 18:12:00,
2013-03-20 13:17:00,20.4,9.8,30.08,West,263,4.0,9.0,63,0.00,,,0.00,Wunderground v.1.15,2013-03-20 18:17:00,
2013-03-20 13:23:00,20.2,9.6,30.08,WNW,282,5.0,8.0,63,0.00,,,0.00,Wunderground v.1.15,2013-03-20 18:23:00,
2013-03-20 13:29:00,20.2,10.0,30.08,WNW,296,5.0,9.0,64,0.00,,,0.00,Wunderground v.1.15,2013-03-20 18:29:00,
2013-03-20 13:34:00,20.2,9.6,30.08,West,275,5.0,8.0,63,0.00,,,0.00,Wunderground v.1.15,2013-03-20 18:34:00,
2013-03-20 13:39:00,20.0,9.8,30.08,NE,38,5.0,11.0,64,0.00,,,0.00,Wunderground v.1.15,2013-03-20 18:39:00,
2013-03-20 13:45:00,20.4,10.1,30.07,WSW,246,5.0,5.0,64,0.00,,,0.00,Wunderground v.1.15,2013-03-20 18:45:00,
2013-03-20 13:50:00,20.8,10.5,30.08,WNW,303,5.0,7.0,64,0.00,,,0.00,Wunderground v.1.15,2013-03-20 18:50:00,
2013-03-20 13:56:00,20.9,10.6,30.07,West,275,5.0,7.0,64,0.00,,,0.00,Wunderground v.1.15,2013-03-20 18:56:00,
2013-03-20 14:01:00,21.2,11.3,30.07,WSW,254,5.0,7.0,65,0.00,,,0.00,Wunderground v.1.15,2013-03-20 19:01:00,
2013-03-20 14:07:00,20.7,10.1,30.07,West,265,5.0,7.0,63,0.00,,,0.00,Wunderground v.1.15,2013-03-20 19:07:00,
2013-03-20 14:12:00,20.9,10.6,30.07,West,260,4.0,5.0,64,0.00,,,0.00,Wunderground v.1.15,2013-03-20 19:12:00,
2013-03-20 14:18:00,20.8,10.5,30.06,NW,313,4.0,8.0,64,0.00,,,0.00,Wunderground v.1.15,2013-03-20 19:18:00,
2013-03-20 14:24:00,20.7,10.4,30.06,West,274,5.0,7.0,64,0.00,,,0.00,Wunderground v.1.15,2013-03-20 19:24:00,
2013-03-20 14:30:00,21.0,11.1,30.06,West,259,4.0,4.0,65,0.00,,,0.00,Wunderground v.1.15,2013-03-20 19:30:00,
2013-03-20 14:36:00,21.1,10.8,30.06,WNW,298,4.0,10.0,64,0.00,,,0.00,Wunderground v.1.15,2013-03-20 19:36:00,
2013-03-20 14:42:00,21.5,11.2,30.05,SSW,192,4.0,4.0,64,0.00,,,0.00,Wunderground v.1.15,2013-03-20 19:42:00,
2013-03-20 14:48:00,22.0,11.3,30.05,NW,321,5.0,5.0,63,0.00,,,0.00,Wunderground v.1.15,2013-03-20 19:48:00,
2013-03-20 14:53:00,22.0,11.0,30.05,NNW,342,5.0,6.0,62,0.00,,,0.00,Wunderground v.1.15,2013-03-20 19:53:00,
2013-03-20 14:58:00,22.6,11.9,30.05,NW,311,5.0,6.0,63,0.00,,,0.00,Wunderground v.1.15,2013-03-20 19:58:00,
2013-03-20 15:03:00,23.0,11.5,30.05,NW,319,4.0,13.0,61,0.00,,,0.00,Wunderground v.1.15,2013-03-20 20:03:00,
2013-03-20 15:08:00,23.6,12.5,30.05,West,261,5.0,13.0,62,0.00,,,0.00,Wunderground v.1.15,2013-03-20 20:08:00,
2013-03-20 15:13:00,24.0,12.9,30.05,SW,234,4.0,5.0,62,0.00,,,0.00,Wunderground v.1.15,2013-03-20 20:13:00,
2013-03-20 15:18:00,23.5,12.0,30.04,West,260,4.0,5.0,61,0.00,,,0.00,Wunderground v.1.15,2013-03-20 20:18:00,
2013-03-20 15:23:00,23.4,12.3,30.04,South,184,4.0,5.0,62,0.00,,,0.00,Wunderground v.1.15,2013-03-20 20:23:00,
2013-03-20 15:29:00,23.3,12.2,30.04,West,274,5.0,6.0,62,0.00,,,0.00,Wunderground v.1.15,2013-03-20 20:29:00,
2013-03-20 15:34:00,22.8,12.1,30.03,West,272,5.0,9.0,63,0.00,,,0.00,Wunderground v.1.15,2013-03-20 20:34:00,
2013-03-20 15:39:00,23.1,13.1,30.04,WNW,302,5.0,9.0,65,0.00,,,0.00,Wunderground v.1.15,2013-03-20 20:39:00,
2013-03-20 15:45:00,23.3,12.6,30.04,NE,45,5.0,9.0,63,0.00,,,0.00,Wunderground v.1.15,2013-03-20 20:45:00,
2013-03-20 15:51:00,23.3,12.6,30.04,WNW,297,5.0,6.0,63,0.00,,,0.00,Wunderground v.1.15,2013-03-20 20:51:00,
2013-03-20 15:57:00,22.6,12.6,30.03,WNW,294,5.0,7.0,65,0.00,,,0.00,Wunderground v.1.15,2013-03-20 20:57:00,
2013-03-20 16:02:00,23.1,12.7,30.03,West,273,5.0,12.0,64,0.00,,,0.00,Wunderground v.1.15,2013-03-20 21:02:00,
2013-03-20 16:08:00,23.0,12.3,30.04,WSW,258,4.0,12.0,63,0.00,,,0.00,Wunderground v.1.15,2013-03-20 21:08:00,
2013-03-20 16:13:00,22.9,12.2,30.04,WNW,284,5.0,7.0,63,0.00,,,0.00,Wunderground v.1.15,2013-03-20 21:13:00,
2013-03-20 16:18:00,23.1,12.7,30.03,West,261,5.0,8.0,64,0.00,,,0.00,Wunderground v.1.15,2013-03-20 21:18:00,
2013-03-20 16:24:00,23.0,13.3,30.04,West,267,5.0,6.0,66,0.00,,,0.00,Wunderground v.1.15,2013-03-20 21:24:00,
2013-03-20 16:29:00,23.2,12.8,30.04,North,355,5.0,6.0,64,0.00,,,0.00,Wunderground v.1.15,2013-03-20 21:29:00,
2013-03-20 16:34:00,23.1,12.4,30.04,WSW,257,4.0,7.0,63,0.00,,,0.00,Wunderground v.1.15,2013-03-20 21:34:00,
2013-03-20 16:40:00,22.8,12.1,30.04,WSW,257,5.0,5.0,63,0.00,,,0.00,Wunderground v.1.15,2013-03-20 21:40:00,
2013-03-20 16:45:00,22.8,12.4,30.04,North,355,4.0,5.0,64,0.00,,,0.00,Wunderground v.1.15,2013-03-20 21:45:00,
2013-03-20 16:51:00,23.2,13.9,30.04,NNE,25,4.0,8.0,67,0.00,,,0.00,Wunderground v.1.15,2013-03-20 21:51:00,
2013-03-20 16:57:00,22.6,12.9,30.04,West,265,4.0,8.0,66,0.00,,,0.00,Wunderground v.1.15,2013-03-20 21:57:00,
2013-03-20 17:02:00,22.8,13.1,30.04,WSW,250,5.0,5.0,66,0.00,,,0.00,Wunderground v.1.15,2013-03-20 22:02:00,
2013-03-20 17:08:00,23.1,13.4,30.04,NNE,16,5.0,7.0,66,0.00,,,0.00,Wunderground v.1.15,2013-03-20 22:08:00,
2013-03-20 17:14:00,22.8,13.8,30.04,West,269,4.0,5.0,68,0.00,,,0.00,Wunderground v.1.15,2013-03-20 22:14:00,
2013-03-20 17:19:00,22.6,12.9,30.04,SW,231,4.0,5.0,66,0.00,,,0.00,Wunderground v.1.15,2013-03-20 22:19:00,
2013-03-20 17:24:00,22.5,13.2,30.04,NNW,338,4.0,6.0,67,0.00,,,0.00,Wunderground v.1.15,2013-03-20 22:24:00,
2013-03-20 17:30:00,22.3,12.7,30.04,WNW,292,4.0,4.0,66,0.00,,,0.00,Wunderground v.1.15,2013-03-20 22:30:00,
2013-03-20 17:37:00,22.1,12.8,30.05,West,264,3.0,5.0,67,0.00,,,0.00,Wunderground v.1.15,2013-03-20 22:37:00,
2013-03-20 17:42:00,22.2,12.9,30.05,West,267,3.0,4.0,67,0.00,,,0.00,Wunderground v.1.15,2013-03-20 22:42:00,
2013-03-20 17:47:00,22.0,11.3,30.05,WSW,254,4.0,7.0,63,0.00,,,0.00,Wunderground v.1.15,2013-03-20 22:47:00,
2013-03-20 17:52:00,21.8,11.1,30.05,SW,232,4.0,6.0,63,0.00,,,0.00,Wunderground v.1.15,2013-03-20 22:52:00,
2013-03-20 17:58:00,21.8,11.8,30.05,West,264,4.0,6.0,65,0.00,,,0.00,Wunderground v.1.15,2013-03-20 22:58:00,
2013-03-20 18:03:00,21.8,11.1,30.05,WNW,297,3.0,6.0,63,0.00,,,0.00,Wunderground v.1.15,2013-03-20 23:03:00,
2013-03-20 18:09:00,21.8,11.5,30.05,WSW,245,3.0,6.0,64,0.00,,,0.00,Wunderground v.1.15,2013-03-20 23:09:00,
2013-03-20 18:15:00,21.8,10.8,30.05,West,276,3.0,5.0,62,0.00,,,0.00,Wunderground v.1.15,2013-03-20 23:15:00,
2013-03-20 18:22:00,21.6,10.6,30.05,WSW,250,3.0,6.0,62,0.00,,,0.00,Wunderground v.1.15,2013-03-20 23:22:00,
2013-03-20 18:27:00,21.4,10.4,30.05,West,275,4.0,9.0,62,0.00,,,0.00,Wunderground v.1.15,2013-03-20 23:27:00,
2013-03-20 18:32:00,21.3,10.7,30.05,WSW,247,4.0,6.0,63,0.00,,,0.00,Wunderground v.1.15,2013-03-20 23:32:00,
2013-03-20 18:38:00,21.2,10.6,30.05,SW,219,3.0,6.0,63,0.00,,,0.00,Wunderground v.1.15,2013-03-20 23:38:00,
2013-03-20 18:44:00,21.1,10.8,30.05,NNE,19,3.0,5.0,64,0.00,,,0.00,Wunderground v.1.15,2013-03-20 23:44:00,
2013-03-20 18:50:00,20.9,10.6,30.06,SW,236,4.0,4.0,64,0.00,,,0.00,Wunderground v.1.15,2013-03-20 23:50:00,
2013-03-20 18:55:00,20.9,11.0,30.06,WSW,254,3.0,4.0,65,0.00,,,0.00,Wunderground v.1.15,2013-03-20 23:55:00,
2013-03-20 19:01:00,20.9,11.0,30.05,WNW,290,3.0,8.0,65,0.00,,,0.00,Wunderground v.1.15,2013-03-21 00:01:00,
2013-03-20 19:07:00,20.9,11.0,30.05,WNW,302,4.0,8.0,65,0.00,,,0.00,Wunderground v.1.15,2013-03-21 00:07:00,
2013-03-20 19:13:00,20.8,11.2,30.06,WNW,293,2.0,3.0,66,0.00,,,0.00,Wunderground v.1.15,2013-03-21 00:13:00,
2013-03-20 19:18:00,20.9,12.0,30.06,NW,324,2.0,3.0,68,0.00,,,0.00,Wunderground v.1.15,2013-03-21 00:18:00,
2013-03-20 19:23:00,20.8,11.6,30.06,WSW,237,2.0,6.0,67,0.00,,,0.00,Wunderground v.1.15,2013-03-21 00:23:00,
2013-03-20 19:29:00,20.6,12.4,30.06,WNW,290,3.0,6.0,70,0.00,,,0.00,Wunderground v.1.15,2013-03-21 00:29:00,
2013-03-20 19:35:00,20.5,11.9,30.06,WSW,255,3.0,4.0,69,0.00,,,0.00,Wunderground v.1.15,2013-03-21 00:35:00,
2013-03-20 19:41:00,20.5,12.3,30.06,West,266,3.0,3.0,70,0.00,,,0.00,Wunderground v.1.15,2013-03-21 00:41:00,
2013-03-20 19:47:00,20.4,12.5,30.06,ENE,72,2.0,4.0,71,0.00,,,0.00,Wunderground v.1.15,2013-03-21 00:47:00,
2013-03-20 19:53:00,20.3,13.6,30.06,WNW,299,2.0,4.0,75,0.00,,,0.00,Wunderground v.1.15,2013-03-21 00:53:00,
2013-03-20 19:59:00,20.2,12.9,30.06,WSW,257,3.0,9.0,73,0.00,,,0.00,Wunderground v.1.15,2013-03-21 00:59:00,
2013-03-20 20:04:00,20.3,12.7,30.06,NW,306,2.0,11.0,72,0.00,,,0.00,Wunderground v.1.15,2013-03-21 01:04:00,
2013-03-20 20:10:00,20.4,13.4,30.06,West,274,2.0,2.0,74,0.00,,,0.00,Wunderground v.1.15,2013-03-21 01:10:00,
2013-03-20 20:15:00,20.3,13.6,30.06,West,279,2.0,2.0,75,0.00,,,0.00,Wunderground v.1.15,2013-03-21 01:15:00,
2013-03-20 20:20:00,20.4,13.4,30.06,North,355,2.0,2.0,74,0.00,,,0.00,Wunderground v.1.15,2013-03-21 01:20:00,
2013-03-20 20:25:00,20.3,13.6,30.06,WNW,284,2.0,2.0,75,0.00,,,0.00,Wunderground v.1.15,2013-03-21 01:25:00,
2013-03-20 20:30:00,20.3,13.9,30.06,NW,315,2.0,2.0,76,0.00,,,0.00,Wunderground v.1.15,2013-03-21 01:30:00,
2013-03-20 20:36:00,20.3,13.9,30.06,NW,317,2.0,4.0,76,0.00,,,0.00,Wunderground v.1.15,2013-03-21 01:36:00,
2013-03-20 20:42:00,20.2,13.2,30.06,North,360,2.0,2.0,74,0.00,,,0.00,Wunderground v.1.15,2013-03-21 01:42:00,
2013-03-20 20:47:00,20.1,13.1,30.07,North,355,2.0,5.0,74,0.00,,,0.00,Wunderground v.1.15,2013-03-21 01:47:00,
2013-03-20 20:52:00,20.0,13.0,30.07,North,360,2.0,4.0,74,0.00,,,0.00,Wunderground v.1.15,2013-03-21 01:52:00,
2013-03-20 20:58:00,19.9,12.9,30.07,North,5,2.0,6.0,74,0.00,,,0.00,Wunderground v.1.15,2013-03-21 01:58:00,
2013-03-20 21:03:00,19.8,12.8,30.07,North,355,2.0,9.0,74,0.00,,,0.00,Wunderground v.1.15,2013-03-21 02:03:00,
2013-03-20 21:09:00,19.7,12.8,30.07,NW,324,1.0,9.0,74,0.00,,,0.00,Wunderground v.1.15,2013-03-21 02:09:00,
2013-03-20 21:14:00,19.6,12.7,30.07,North,355,0.0,0.0,74,0.00,,,0.00,Wunderground v.1.15,2013-03-21 02:14:00,
2013-03-20 21:20:00,19.5,12.9,30.07,NNW,344,0.0,0.0,75,0.00,,,0.00,Wunderground v.1.15,2013-03-21 02:20:00,
2013-03-20 21:27:00,19.4,12.5,30.07,NNW,335,1.0,5.0,74,0.00,,,0.00,Wunderground v.1.15,2013-03-21 02:27:00,
2013-03-20 21:32:00,19.4,12.5,30.07,West,267,1.0,1.0,74,0.00,,,0.00,Wunderground v.1.15,2013-03-21 02:32:00,
2013-03-20 21:38:00,19.3,12.4,30.07,NW,304,1.0,1.0,74,0.00,,,0.00,Wunderground v.1.15,2013-03-21 02:38:00,
2013-03-20 21:44:00,19.3,12.4,30.07,West,271,1.0,1.0,74,0.00,,,0.00,Wunderground v.1.15,2013-03-21 02:44:00,
2013-03-20 21:50:00,19.1,11.9,30.07,North,355,1.0,1.0,73,0.00,,,0.00,Wunderground v.1.15,2013-03-21 02:50:00,
2013-03-20 21:55:00,18.9,11.7,30.07,WNW,291,1.0,4.0,73,0.00,,,0.00,Wunderground v.1.15,2013-03-21 02:55:00,
2013-03-20 22:01:00,18.7,11.8,30.07,NW,309,0.0,8.0,74,0.00,,,0.00,Wunderground v.1.15,2013-03-21 03:01:00,
2013-03-20 22:06:00,18.5,11.6,30.07,NW,315,0.0,8.0,74,0.00,,,0.00,Wunderground v.1.15,2013-03-21 03:06:00,
2013-03-20 22:11:00,18.2,11.3,30.07,WNW,298,0.0,1.0,74,0.00,,,0.00,Wunderground v.1.15,2013-03-21 03:11:00,
2013-03-20 22:18:00,18.1,11.5,30.07,WNW,299,1.0,1.0,75,0.00,,,0.00,Wunderground v.1.15,2013-03-21 03:18:00,
2013-03-20 22:23:00,17.9,11.6,30.07,NNE,28,0.0,1.0,76,0.00,,,0.00,Wunderground v.1.15,2013-03-21 03:23:00,
2013-03-20 22:28:00,17.7,11.4,30.07,West,264,0.0,1.0,76,0.00,,,0.00,Wunderground v.1.15,2013-03-21 03:28:00,
2013-03-20 22:34:00,17.5,11.2,30.08,North,5,1.0,4.0,76,0.00,,,0.00,Wunderground v.1.15,2013-03-21 03:34:00,
2013-03-20 22:39:00,17.5,11.5,30.07,North,5,1.0,4.0,77,0.00,,,0.00,Wunderground v.1.15,2013-03-21 03:39:00,
2013-03-20 22:44:00,17.3,11.3,30.08,North,355,1.0,1.0,77,0.00,,,0.00,Wunderground v.1.15,2013-03-21 03:44:00,
2013-03-20 22:50:00,17.1,11.1,30.08,North,355,0.0,0.0,77,0.00,,,0.00,Wunderground v.1.15,2013-03-21 03:50:00,
2013-03-20 22:55:00,16.8,11.1,30.08,NNW,338,0.0,0.0,78,0.00,,,0.00,Wunderground v.1.15,2013-03-21 03:55:00,
2013-03-20 23:00:00,16.7,11.0,30.07,NE,40,0.0,0.0,78,0.00,,,0.00,Wunderground v.1.15,2013-03-21 04:00:00,
2013-03-20 23:01:00,16.6,10.9,30.07,NE,40,0.0,5.0,78,0.00,,,0.00,Wunderground v.1.15,2013-03-21 04:01:00,
2013-03-20 23:07:00,16.4,11.0,30.08,NNW,342,0.0,5.0,79,0.00,,,0.00,Wunderground v.1.15,2013-03-21 04:07:00,
2013-03-20 23:08:00,16.4,11.0,30.08,NW,313,0.0,5.0,79,0.00,,,0.00,Wunderground v.1.15,2013-03-21 04:08:00,
2013-03-20 23:13:00,16.3,10.9,30.08,WSW,253,0.0,0.0,79,0.00,,,0.00,Wunderground v.1.15,2013-03-21 04:13:00,
2013-03-20 23:18:00,16.2,10.8,30.08,WSW,253,0.0,0.0,79,0.00,,,0.00,Wunderground v.1.15,2013-03-21 04:18:00,
2013-03-20 23:23:00,16.1,10.7,30.08,NNE,17,0.0,2.0,79,0.00,,,0.00,Wunderground v.1.15,2013-03-21 04:23:00,
2013-03-20 23:29:00,16.0,10.6,30.07,NNE,17,0.0,2.0,79,0.00,,,0.00,Wunderground v.1.15,2013-03-21 04:29:00,
2013-03-20 23:34:00,16.0,10.6,30.07,NW,315,0.0,1.0,79,0.00,,,0.00,Wunderground v.1.15,2013-03-21 04:34:00,
2013-03-20 23:40:00,16.0,10.6,30.07,WSW,250,1.0,1.0,79,0.00,,,0.00,Wunderground v.1.15,2013-03-21 04:40:00,
2013-03-20 23:47:00,16.0,10.3,30.07,WNW,289,1.0,1.0,78,0.00,,,0.00,Wunderground v.1.15,2013-03-21 04:47:00,
2013-03-20 23:53:00,15.9,10.3,30.07,WNW,298,0.0,2.0,78,0.00,,,0.00,Wunderground v.1.15,2013-03-21 04:53:00,
2013-03-20 23:58:00,15.9,10.3,30.07,NW,311,0.0,2.0,78,0.00,,,0.00,Wunderground v.1.15,2013-03-21 04:58:00,